GW1515 Weather Reports


time (UTC)temp
F
wind
direction
speed
knots
gust
knots
rain 1hr
in
rain 24hr
in
rain mn
in
humidity
%
barometer
mb
20260906113451 69 157 0.0 1.7 0.00 0.00 0.00 98 1018.8
20260906112947 69 15 1.7 2.6 0.00 0.00 0.00 98 1018.8
20260906112442 68 75 0.0 1.7 0.00 0.00 0.00 98 1018.8
20260906111938 69 80 0.0 2.6 0.00 0.00 0.00 98 1018.5
20260906111437 68 347 0.0 1.7 0.00 0.00 0.00 98 1018.6
20260906110932 68 3 0.0 2.6 0.00 0.00 0.00 98 1018.6
20260906110428 68 309 0.0 1.7 0.00 0.00 0.00 98 1018.4
20260906105926 68 38 0.0 0.9 0.00 0.00 0.00 98 1018.3
20260906105422 68 75 0.0 0.9 0.00 0.00 0.00 98 1018.4
20260906104918 68 135 0.0 0.9 0.00 0.00 0.00 98 1018.2
20260906104416 68 100 0.9 0.9 0.00 0.00 0.00 98 1018.1
20260906103916 68 0 0.0 0.9 0.00 0.00 0.00 97 1018.1
20260906103414 68 50 0.0 1.7 0.00 0.00 0.00 97 1018.4
20260906102910 68 336 0.0 0.9 0.00 0.00 0.00 97 1018.2
20260906102409 68 347 0.0 0.9 0.00 0.00 0.00 97 1018.2
20260906101904 69 37 0.0 2.6 0.00 0.00 0.00 97 1018.2
20260906101359 69 350 0.0 1.7 0.00 0.00 0.00 97 1017.9
20260906100854 69 357 0.0 1.7 0.00 0.00 0.00 97 1018.2
20260906100353 69 33 0.0 0.9 0.00 0.00 0.00 96 1018.0
20260906095849 69 25 0.0 1.7 0.00 0.00 0.00 96 1017.9
20260906095344 69 10 0.0 1.7 0.00 0.00 0.00 96 1017.9
20260906094844 69 9 0.0 2.6 0.00 0.00 0.00 96 1017.8
20260906094338 69 37 0.0 4.3 0.00 0.00 0.00 95 1018.0
20260906093830 69 53 0.0 2.6 0.00 0.00 0.00 95 1017.9
20260906093325 69 357 0.9 2.6 0.00 0.00 0.00 95 1017.9
20260906092819 69 358 1.7 2.6 0.00 0.00 0.00 95 1017.9
20260906092314 70 355 0.0 2.6 0.00 0.00 0.00 94 1017.8
20260906091809 70 39 0.9 2.6 0.00 0.00 0.00 94 1017.6
20260906091305 70 42 1.7 2.6 0.00 0.00 0.00 94 1017.8
20260906090802 70 31 1.7 2.6 0.00 0.00 0.00 94 1017.7
20260906090300 70 76 0.9 3.5 0.00 0.00 0.00 94 1017.8
20260906085800 70 15 0.0 2.6 0.00 0.00 0.00 94 1018.0
20260906085253 70 27 1.7 2.6 0.00 0.00 0.00 94 1017.8
20260906084748 70 353 0.0 2.6 0.00 0.00 0.00 94 1017.6
20260906084242 71 20 1.7 1.7 0.00 0.00 0.00 94 1017.6
20260906083737 71 43 0.0 2.6 0.00 0.00 0.00 93 1017.7
20260906083233 71 99 0.0 2.6 0.00 0.00 0.00 93 1017.8
20260906082728 71 29 0.9 2.6 0.00 0.00 0.00 93 1017.8
20260906082223 71 61 0.9 2.6 0.00 0.00 0.00 93 1017.7
20260906081719 72 63 2.6 3.5 0.00 0.00 0.00 92 1017.9
20260906081219 72 64 0.9 3.5 0.00 0.00 0.00 92 1018.0
20260906080715 72 33 2.6 4.3 0.00 0.00 0.00 92 1018.0
20260906080211 72 46 2.6 3.5 0.00 0.00 0.00 92 1018.1
20260906075706 72 77 2.6 3.5 0.00 0.00 0.00 92 1018.0
20260906075201 72 76 0.9 3.5 0.00 0.00 0.00 92 1018.2
20260906074656 72 64 1.7 4.3 0.00 0.00 0.00 92 1018.1
20260906074155 72 44 0.9 3.5 0.00 0.00 0.00 92 1018.3
20260906073649 72 61 0.9 2.6 0.00 0.00 0.00 92 1017.9
20260906073140 72 33 0.9 3.5 0.00 0.00 0.00 93 1018.1
20260906072635 72 341 0.9 2.6 0.00 0.00 0.00 92 1018.1
20260906072130 72 48 1.7 3.5 0.00 0.00 0.00 92 1017.9
20260906071626 72 46 1.7 2.6 0.00 0.00 0.00 92 1018.1
20260906071121 72 29 0.9 3.5 0.00 0.00 0.00 92 1018.5
20260906070618 72 78 0.0 2.6 0.00 0.00 0.00 92 1018.1
20260906070113 73 73 0.0 4.3 0.00 0.00 0.00 92 1018.3
20260906065613 73 35 0.9 3.5 0.00 0.00 0.00 92 1018.2
20260906065108 73 52 0.9 3.5 0.00 0.00 0.00 92 1018.1
20260906064604 73 108 0.0 2.6 0.00 0.00 0.00 91 1018.0
20260906064058 73 359 1.7 2.6 0.00 0.00 0.00 91 1017.9
20260906063554 73 12 0.9 5.2 0.00 0.00 0.00 91 1017.9
20260906063049 73 66 1.7 5.2 0.00 0.00 0.00 91 1018.1
20260906062544 73 24 0.0 6.1 0.00 0.00 0.00 91 1017.9
20260906062038 73 96 4.3 5.2 0.00 0.00 0.00 90 1018.0
20260906061535 73 52 2.6 5.2 0.00 0.00 0.00 90 1018.2
20260906061034 73 92 2.6 5.2 0.00 0.00 0.00 90 1018.2
20260906060531 73 14 0.9 7.0 0.00 0.00 0.00 90 1018.0
20260906060028 73 83 1.7 5.2 0.00 0.00 0.00 90 1018.1
20260906055523 73 35 1.7 5.2 0.00 0.00 0.00 90 1017.8
20260906055019 73 78 4.3 5.2 0.00 0.00 0.00 90 1018.0
20260906054519 73 69 2.6 5.2 0.00 0.00 0.00 90 1017.9
20260906054014 73 0 2.6 7.0 0.00 0.00 0.00 91 1018.0
20260906053510 73 358 3.5 4.3 0.00 0.00 0.00 91 1017.7
20260906053006 73 29 1.7 4.3 0.00 0.00 0.00 90 1017.7
20260906052501 73 355 1.7 4.3 0.00 0.00 0.00 90 1018.0
20260906051958 73 336 0.9 5.2 0.00 0.00 0.00 90 1017.8
20260906051453 73 10 2.6 6.1 0.00 0.00 0.00 90 1017.7
20260906050949 73 30 1.7 7.0 0.00 0.00 0.00 90 1017.8
20260906050448 73 22 2.6 7.0 0.00 0.00 0.00 90 1017.9
20260906045948 73 357 1.7 8.7 0.00 0.00 0.00 90 1017.7
20260906045447 73 40 2.6 7.0 0.00 0.00 0.00 90 1017.5
20260906044943 73 51 2.6 6.1 0.00 0.00 0.00 90 1017.4
20260906044438 73 126 5.2 9.6 0.00 0.00 0.00 90 1017.0
20260906043933 73 20 4.3 7.0 0.00 0.00 0.00 90 1017.0
20260906043429 73 61 3.5 6.1 0.00 0.00 0.00 90 1017.0
20260906042925 73 70 5.2 8.7 0.00 0.00 0.00 90 1017.1
20260906042424 73 118 1.7 9.6 0.00 0.00 0.00 90 1017.0
20260906041919 73 45 7.8 9.6 0.00 0.00 0.00 89 1017.0
20260906041414 73 109 3.5 8.7 0.00 0.00 0.00 90 1017.0
20260906040908 73 39 5.2 8.7 0.00 0.00 0.00 89 1016.8
20260906040404 73 17 3.5 11.3 0.00 0.00 0.00 89 1017.0
20260906035859 73 67 1.7 7.0 0.00 0.00 0.00 89 1017.0
20260906035354 73 15 4.3 8.7 0.00 0.00 0.00 90 1017.0
20260906034849 73 29 3.5 7.8 0.00 0.00 0.00 90 1016.8
20260906034344 73 55 7.0 10.4 0.00 0.00 0.00 89 1017.0
20260906033840 73 67 4.3 12.2 0.00 0.00 0.00 89 1016.9
20260906033339 73 36 2.6 7.8 0.00 0.00 0.00 89 1016.7
20260906032836 73 61 1.7 6.1 0.00 0.00 0.00 89 1016.7
20260906032331 73 15 3.5 7.0 0.00 0.00 0.00 89 1016.9
20260906031826 73 15 1.7 5.2 0.00 0.00 0.00 89 1016.7
20260906031322 73 56 4.3 7.8 0.00 0.00 0.00 89 1016.7
20260906030821 73 89 4.3 7.0 0.00 0.00 0.00 89 1016.7
20260906030316 73 31 0.0 5.2 0.00 0.00 0.00 89 1016.8
20260906025811 73 46 2.6 8.7 0.00 0.00 0.00 89 1016.7
20260906025306 73 112 2.6 6.1 0.00 0.00 0.00 89 1016.7
20260906024804 73 13 2.6 2.6 0.00 0.00 0.00 89 1016.8
20260906024303 73 14 1.7 9.6 0.00 0.00 0.00 90 1016.9
20260906023759 73 34 1.7 9.6 0.00 0.00 0.00 90 1016.6
20260906023254 73 47 5.2 6.1 0.00 0.00 0.00 90 1016.9
20260906022750 73 351 3.5 6.1 0.00 0.00 0.00 90 1016.6
20260906022245 73 30 4.3 9.6 0.00 0.00 0.00 89 1016.6
20260906021741 73 44 5.2 10.4 0.00 0.00 0.00 89 1016.8
20260906021240 73 28 1.7 7.8 0.00 0.00 0.00 89 1016.7
20260906020734 73 69 2.6 8.7 0.00 0.00 0.00 90 1016.9
20260906020224 73 0 1.7 7.8 0.00 0.00 0.00 90 1016.8
20260906015724 73 23 3.5 10.4 0.00 0.00 0.00 90 1016.7
20260906015222 73 103 3.5 7.8 0.00 0.00 0.00 90 1017.1
20260906014716 73 338 2.6 6.1 0.00 0.00 0.00 90 1016.9
20260906014213 73 16 2.6 8.7 0.00 0.00 0.00 90 1016.9
20260906013709 73 315 2.6 12.2 0.00 0.00 0.00 90 1017.0
20260906013208 73 350 5.2 7.0 0.00 0.00 0.00 90 1017.0
20260906012703 73 13 2.6 10.4 0.00 0.00 0.00 90 1016.6
20260906012158 73 28 3.5 7.8 0.00 0.00 0.00 90 1016.7
20260906011654 73 30 9.6 10.4 0.00 0.00 0.00 89 1016.7
20260906011148 73 321 5.2 7.8 0.00 0.00 0.00 89 1016.8
20260906010644 73 342 1.7 4.3 0.00 0.00 0.00 89 1016.6
20260906010140 73 3 3.5 8.7 0.00 0.00 0.00 89 1016.7
20260906005639 73 316 4.3 8.7 0.00 0.00 0.00 88 1016.8
20260906005138 73 332 7.8 9.6 0.00 0.00 0.00 88 1016.7
20260906004638 73 10 3.5 10.4 0.00 0.00 0.00 88 1016.3
20260906004133 73 337 3.5 10.4 0.00 0.00 0.00 88 1016.4
20260906003628 73 25 2.6 11.3 0.00 0.00 0.00 88 1016.3
20260906003124 73 7 7.8 9.6 0.00 0.00 0.00 88 1016.3
20260906002619 73 357 3.5 12.2 0.00 0.00 0.00 88 1016.1
20260906002113 73 355 9.6 13.9 0.00 0.00 0.00 88 1016.2
20260906001608 74 22 6.1 11.3 0.00 0.00 0.00 87 1016.1
20260906001103 74 14 4.3 7.8 0.00 0.00 0.00 87 1016.1
20260906000559 75 36 7.0 11.3 0.00 0.00 0.00 87 1016.3
20260906000054 75 2 5.2 11.3 0.00 0.00 0.00 87 1016.2
20260905235553 75 16 5.2 13.0 0.00 0.00 0.00 86 1016.2
20260905235048 76 8 5.2 9.6 0.00 0.00 0.00 85 1016.3
20260905234544 76 10 2.6 12.2 0.00 0.00 0.00 85 1015.9
20260905234039 76 346 5.2 10.4 0.00 0.00 0.00 85 1016.2
20260905233538 76 340 3.5 9.6 0.00 0.00 0.00 85 1015.9
20260905233038 76 22 6.1 9.6 0.00 0.00 0.00 84 1016.0
20260905232534 77 13 5.2 11.3 0.00 0.00 0.00 84 1015.8
20260905232029 77 349 3.5 13.9 0.00 0.00 0.00 83 1015.6
20260905231524 78 8 7.8 11.3 0.00 0.00 0.00 82 1015.8
20260905231021 78 13 4.3 9.6 0.00 0.00 0.00 82 1015.5
20260905230520 78 17 3.5 9.6 0.00 0.00 0.00 81 1015.5
20260905230018 79 42 9.6 11.3 0.00 0.00 0.00 80 1015.3
20260905225513 80 19 6.1 12.2 0.00 0.00 0.00 78 1015.3
20260905225009 80 32 8.7 8.7 0.00 0.00 0.00 77 1015.3
20260905224504 80 353 6.1 16.5 0.00 0.00 0.00 76 1015.4
20260905224003 80 357 2.6 11.3 0.00 0.00 0.00 77 1015.4
20260905223501 81 3 6.1 7.8 0.00 0.00 0.00 76 1015.5
20260905222956 80 16 5.2 12.2 0.00 0.00 0.00 76 1015.3
20260905222456 81 6 2.6 9.6 0.00 0.00 0.00 76 1015.4
20260905221951 81 47 3.5 10.4 0.00 0.00 0.00 76 1015.4
20260905221447 82 335 3.5 10.4 0.00 0.00 0.00 74 1015.5
20260905220943 81 324 2.6 13.0 0.00 0.00 0.00 75 1015.2
20260905220439 80 352 3.5 7.8 0.00 0.00 0.00 77 1015.5
20260905215938 81 359 2.6 9.6 0.00 0.00 0.00 76 1015.4
20260905215434 80 20 3.5 11.3 0.00 0.00 0.00 77 1015.6
20260905214930 80 358 9.6 13.0 0.00 0.00 0.00 77 1015.4
20260905214426 80 357 3.5 9.6 0.00 0.00 0.00 77 1015.4
20260905213926 80 16 6.1 10.4 0.00 0.00 0.00 77 1015.7
20260905213422 80 27 6.1 7.8 0.00 0.00 0.00 79 1015.6
20260905212917 80 334 3.5 9.6 0.00 0.00 0.00 79 1015.6
20260905212412 80 0 3.5 7.8 0.00 0.00 0.00 78 1015.4
20260905211911 80 321 3.5 7.8 0.00 0.00 0.00 79 1015.4
20260905211407 80 338 2.6 7.8 0.00 0.00 0.00 79 1015.3
20260905210903 80 343 3.5 10.4 0.00 0.00 0.00 78 1015.6
20260905210357 80 337 4.3 11.3 0.00 0.00 0.00 78 1015.4
20260905205856 81 333 6.1 12.2 0.00 0.00 0.00 78 1015.3
20260905205351 82 355 1.7 8.7 0.00 0.00 0.00 77 1015.4
20260905204850 81 333 4.3 8.7 0.00 0.00 0.00 77 1015.5
20260905204347 83 15 5.2 8.7 0.00 0.00 0.00 74 1015.5
20260905203845 82 301 2.6 11.3 0.00 0.00 0.00 76 1015.5
20260905203341 82 333 7.8 8.7 0.00 0.00 0.00 76 1015.5
20260905202837 82 346 2.6 11.3 0.00 0.00 0.00 77 1015.5
20260905202331 83 11 4.3 8.7 0.00 0.00 0.00 74 1015.4
20260905201827 82 352 5.2 10.4 0.00 0.00 0.00 76 1015.5
20260905201322 83 6 1.7 13.0 0.00 0.00 0.00 76 1015.6
20260905200816 84 321 2.6 7.0 0.00 0.00 0.00 74 1015.4
20260905200312 83 342 4.3 10.4 0.00 0.00 0.00 76 1015.3
20260905195810 82 25 7.0 9.6 0.00 0.00 0.00 77 1015.3
20260905195307 82 19 4.3 12.2 0.00 0.00 0.00 79 1015.4
20260905194801 81 31 8.7 13.0 0.00 0.00 0.00 79 1015.4
20260905194255 83 349 4.3 7.8 0.00 0.00 0.00 77 1015.6
20260905193754 82 331 5.2 11.3 0.00 0.00 0.00 76 1015.5
20260905193249 84 16 2.6 9.6 0.00 0.00 0.00 76 1015.5
20260905192744 83 8 4.3 7.8 0.00 0.00 0.00 76 1015.6
20260905192241 83 12 5.2 11.3 0.00 0.00 0.00 75 1015.6
20260905191740 85 332 4.3 8.7 0.00 0.00 0.00 72 1015.6
20260905191239 84 349 4.3 10.4 0.00 0.00 0.00 74 1015.6
20260905190737 85 351 3.5 8.7 0.00 0.00 0.00 75 1015.5
20260905190237 83 7 4.3 11.3 0.00 0.00 0.00 76 1015.5
20260905185736 82 350 4.3 9.6 0.00 0.00 0.00 77 1015.6
20260905185231 83 345 1.7 10.4 0.00 0.00 0.00 77 1015.4
20260905184725 84 5 3.5 9.6 0.00 0.00 0.00 75 1015.5
20260905184224 86 16 3.5 6.1 0.00 0.00 0.00 73 1015.7
20260905183723 85 20 9.6 9.6 0.00 0.00 0.00 73 1015.6
20260905183219 84 348 5.2 9.6 0.00 0.00 0.00 75 1015.7
20260905182713 84 3 7.0 9.6 0.00 0.00 0.00 74 1015.5
20260905182213 84 79 4.3 9.6 0.00 0.00 0.00 75 1015.7
20260905181708 84 329 2.6 9.6 0.00 0.00 0.00 75 1015.6
20260905181207 84 336 3.5 9.6 0.00 0.00 0.00 75 1015.5
20260905180702 85 104 3.5 7.8 0.00 0.00 0.00 73 1015.5
20260905180157 85 18 4.3 9.6 0.00 0.00 0.00 73 1015.5
20260905175656 85 12 3.5 8.7 0.00 0.00 0.00 73 1015.5
20260905175152 86 351 3.5 7.8 0.00 0.00 0.00 74 1015.4
20260905174647 86 356 5.2 8.7 0.00 0.00 0.00 72 1015.5
20260905174143 85 63 2.6 8.7 0.00 0.00 0.00 75 1015.5
20260905173638 85 2 4.3 10.4 0.00 0.00 0.00 74 1015.6
20260905173134 85 357 4.3 7.8 0.00 0.00 0.00 73 1015.6
20260905172633 86 355 3.5 7.0 0.00 0.00 0.00 72 1015.5
20260905172128 86 25 2.6 8.7 0.00 0.00 0.00 72 1015.6
20260905171624 88 351 5.2 7.8 0.00 0.00 0.00 69 1015.5
20260905171120 87 23 3.5 9.6 0.00 0.00 0.00 70 1015.4
20260905170616 88 8 2.6 7.8 0.00 0.00 0.00 69 1015.5
20260905170111 88 356 2.6 7.0 0.00 0.00 0.00 68 1015.6
20260905165606 87 358 3.5 7.8 0.00 0.00 0.00 70 1015.6
20260905165101 85 12 9.6 9.6 0.00 0.00 0.00 73 1015.5
20260905164555 86 359 5.2 9.6 0.00 0.00 0.00 73 1015.7
20260905164050 86 357 2.6 8.7 0.00 0.00 0.00 72 1015.8
20260905163546 86 133 2.6 7.0 0.00 0.00 0.00 72 1015.8
20260905163042 86 0 2.6 5.2 0.00 0.00 0.00 73 1015.7
20260905162538 84 312 3.5 9.6 0.00 0.00 0.00 74 1015.5
20260905162037 85 333 4.3 10.4 0.00 0.00 0.00 73 1015.9
20260905161532 85 18 7.0 7.8 0.00 0.00 0.00 73 1015.8
20260905161030 84 358 1.7 8.7 0.00 0.00 0.00 74 1015.9
20260905160528 84 87 6.1 9.6 0.00 0.00 0.00 75 1015.8
20260905160029 85 73 3.5 7.0 0.00 0.00 0.00 74 1015.6
20260905155528 84 87 1.7 9.6 0.00 0.00 0.00 75 1015.4
20260905155027 85 82 2.6 5.2 0.00 0.00 0.00 75 1015.4
20260905154522 85 14 2.6 6.1 0.00 0.00 0.00 74 1015.6
20260905154018 84 342 4.3 8.7 0.00 0.00 0.00 76 1015.6
20260905153514 84 52 1.7 6.1 0.00 0.00 0.00 76 1015.6
20260905153014 84 354 3.5 8.7 0.00 0.00 0.00 77 1015.1
20260905152514 85 319 1.7 4.3 0.00 0.00 0.00 77 1015.4
20260905152009 83 70 2.6 8.7 0.00 0.00 0.00 80 1015.4
20260905151504 83 38 2.6 7.8 0.00 0.00 0.00 80 1015.5
20260905150959 83 39 3.5 6.1 0.00 0.00 0.00 82 1015.5
20260905150454 82 4 2.6 13.0 0.00 0.00 0.00 83 1015.2
20260905145950 82 335 3.5 7.0 0.00 0.00 0.00 83 1015.1
20260905145445 81 12 4.3 10.4 0.00 0.00 0.00 85 1015.3
20260905144944 81 345 5.2 8.7 0.00 0.00 0.00 85 1015.4
20260905144440 81 5 4.3 10.4 0.00 0.00 0.00 85 1015.2
20260905143939 81 106 2.6 10.4 0.00 0.00 0.00 85 1015.3
20260905143432 81 30 5.2 7.8 0.00 0.00 0.00 85 1015.2
20260905142927 81 3 2.6 9.6 0.00 0.00 0.00 85 1015.3
20260905142426 80 74 1.7 7.0 0.00 0.00 0.00 87 1015.2
20260905141922 79 299 2.6 9.6 0.00 0.00 0.00 88 1014.9
20260905141416 80 13 3.5 6.1 0.00 0.00 0.00 88 1014.9
20260905140913 79 341 1.7 7.0 0.00 0.00 0.00 90 1014.9
20260905140408 80 327 2.6 6.1 0.00 0.00 0.00 89 1014.7
20260905135906 80 13 4.3 7.0 0.00 0.00 0.00 88 1014.8
20260905135402 79 10 2.6 7.0 0.00 0.00 0.00 90 1014.8
20260905134857 80 349 2.6 4.3 0.00 0.00 0.00 88 1014.8
20260905134356 79 19 2.6 6.1 0.00 0.00 0.00 90 1015.0
20260905133850 79 287 1.7 3.5 0.00 0.00 0.00 91 1015.0
20260905133346 78 11 3.5 5.2 0.00 0.00 0.00 92 1015.2
20260905132845 78 333 1.7 5.2 0.00 0.00 0.00 92 1015.4
20260905132341 78 348 2.6 5.2 0.00 0.00 0.00 92 1015.1
20260905131840 78 18 2.6 6.1 0.00 0.00 0.00 92 1015.0
20260905131336 79 86 2.6 5.2 0.00 0.00 0.00 91 1014.7
20260905130831 79 181 1.7 4.3 0.00 0.00 0.00 90 1014.8
20260905130330 79 60 0.0 5.2 0.00 0.00 0.00 91 1014.7
20260905125825 79 9 2.6 7.0 0.00 0.00 0.00 91 1014.7
20260905125320 79 63 2.6 5.2 0.00 0.00 0.00 91 1014.5
20260905124816 78 5 1.7 6.1 0.00 0.00 0.00 91 1014.2
20260905124313 78 349 2.6 7.0 0.00 0.00 0.00 92 1014.2
20260905123807 78 44 4.3 8.7 0.00 0.00 0.00 93 1014.4
20260905123304 78 23 6.1 6.1 0.00 0.00 0.00 93 1014.1
20260905122804 78 342 6.1 7.8 0.00 0.00 0.00 94 1014.1
20260905122306 78 29 2.6 6.1 0.00 0.00 0.00 95 1014.2
20260905121759 78 10 1.7 3.5 0.00 0.00 0.00 96 1014.1
20260905121255 77 12 3.5 5.2 0.00 0.00 0.00 97 1014.0
20260905120753 77 4 2.6 4.3 0.00 0.00 0.00 98 1014.1
20260905120248 77 297 0.0 1.7 0.00 0.00 0.00 98 1013.9
20260905115743 76 328 0.0 1.7 0.00 0.00 0.00 98 1014.0
20260905115243 76 339 0.0 0.9 0.00 0.00 0.00 98 1013.9
20260905114742 76 154 0.0 0.0 0.00 0.00 0.00 98 1013.7
20260905114241 76 124 0.0 0.9 0.00 0.00 0.00 98 1013.6
20260905113740 76 89 0.0 0.0 0.00 0.00 0.00 98 1013.7